�N����,����,�~����,�C��,���x,�C��,����,���ϕ���,�ő�u�ԕ���,�ő厞����,���˗�,�I�_���x,�n�����x,�ő啗���N��,DTYPE
"17/07/09","00:10",0.0,23.8,94.0,1004.5,318.9,1.0,2.2,333.2,0.00,22.8,25.9,"00:05:04",1
"17/07/09","00:20",0.0,23.9,93.8,1004.8,333.1,1.6,3.1,341.3,0.00,22.9,26.0,"00:14:48",1
"17/07/09","00:30",0.0,23.8,93.5,1004.3,322.8,1.6,2.7,330.1,0.00,22.7,25.8,"00:23:36",1
"17/07/09","00:40",0.0,23.9,93.4,1004.5,301.4,1.0,2.7,328.3,0.00,22.8,26.0,"00:30:16",1
"17/07/09","00:50",0.0,23.9,93.3,1004.3,328.8,1.7,2.8,350.8,0.00,22.8,25.9,"00:43:52",1
"17/07/09","01:00",0.0,23.9,93.1,1004.5,335.3,1.0,2.0,345.4,0.00,22.8,25.9,"00:50:24",1
"17/07/09","01:10",0.0,23.9,93.0,1004.5,333.9,0.7,1.6,336.9,0.00,22.7,25.8,"01:01:20",1
"17/07/09","01:20",0.0,23.8,93.2,1004.3,310.5,0.8,1.6,321.4,0.00,22.7,25.7,"01:17:20",1
"17/07/09","01:30",0.0,23.8,93.4,1004.5,316.3,0.8,1.7,339.0,0.00,22.7,25.8,"01:23:12",1
"17/07/09","01:40",0.0,23.6,93.5,1005.0,277.4,0.6,1.0,315.8,0.00,22.5,25.6,"01:39:20",1
"17/07/09","01:50",0.0,23.6,93.7,1005.0,321.6,0.8,1.9,344.7,0.00,22.6,25.7,"01:48:08",1
"17/07/09","02:00",0.0,23.7,93.6,1004.8,338.0,1.1,2.4,346.2,0.00,22.6,25.7,"01:51:28",1
"17/07/09","02:10",0.0,23.8,93.5,1004.5,336.9,1.3,2.6,338.7,0.00,22.7,25.6,"02:08:32",1
"17/07/09","02:20",0.0,23.8,93.5,1004.8,337.9,1.5,3.1,333.0,0.00,22.7,25.7,"02:16:08",1
"17/07/09","02:30",0.0,23.8,93.5,1004.5,344.7,1.2,1.9,341.3,0.00,22.7,25.6,"02:23:20",1
"17/07/09","02:40",0.0,23.9,93.3,1004.5,339.4,1.5,2.7,337.3,0.00,22.8,25.6,"02:36:16",1
"17/07/09","02:50",0.0,23.9,93.0,1005.0,339.5,1.6,2.7,355.4,0.00,22.7,25.5,"02:42:16",1
"17/07/09","03:00",0.0,23.9,92.8,1004.5,339.6,1.1,2.0,341.5,0.00,22.7,25.5,"02:51:44",1
"17/07/09","03:10",0.0,23.8,93.0,1004.8,310.9,0.7,1.3,337.1,0.00,22.6,25.4,"03:00:24",1
"17/07/09","03:20",0.0,23.8,92.9,1005.0,320.2,1.0,2.5,336.4,0.00,22.6,25.7,"03:12:56",1
"17/07/09","03:30",0.0,23.7,92.8,1004.8,304.6,0.8,1.6,300.3,0.00,22.5,25.5,"03:25:12",1
"17/07/09","03:40",0.0,23.5,92.8,1004.8,297.6,0.8,1.8,330.2,0.00,22.3,25.4,"03:35:28",1
"17/07/09","03:50",0.0,23.4,93.1,1004.8,305.7,1.0,1.6,327.1,0.00,22.3,25.3,"03:41:12",1
"17/07/09","04:00",0.0,23.3,93.3,1004.8,313.5,1.1,1.7,321.1,0.00,22.2,25.2,"03:51:52",1
"17/07/09","04:10",0.0,23.2,93.5,1005.5,284.9,0.8,1.6,321.6,0.00,22.1,25.5,"04:09:12",1
"17/07/09","04:20",0.0,23.2,93.7,1005.0,311.6,0.8,1.2,317.1,0.00,22.2,25.2,"04:17:52",1
"17/07/09","04:30",0.0,23.1,93.9,1004.8,295.2,1.0,1.4,315.0,0.00,22.1,25.4,"04:21:36",1
"17/07/09","04:40",0.0,23.0,93.9,1004.5,294.7,0.8,1.1,320.6,0.00,22.0,25.1,"04:33:20",1
"17/07/09","04:50",0.0,22.9,94.3,1004.8,311.2,1.1,1.7,318.7,0.00,22.0,25.2,"04:40:02",1
"17/07/09","05:00",0.0,22.9,94.3,1005.0,301.4,1.0,1.6,317.9,0.00,22.0,24.8,"04:50:32",1
"17/07/09","05:10",0.0,22.9,94.6,1005.2,288.7,0.8,1.2,304.6,0.00,22.0,25.1,"05:00:08",1
"17/07/09","05:20",0.0,23.0,94.7,1005.0,274.8,0.8,1.2,270.6,0.00,22.1,25.1,"05:16:48",1
"17/07/09","05:30",0.0,22.9,94.7,1004.8,298.9,0.7,1.1,309.5,0.00,22.0,25.0,"05:28:56",1
"17/07/09","05:40",0.0,23.1,94.9,1005.0,304.0,0.8,1.4,322.8,0.00,22.3,25.2,"05:38:08",1
"17/07/09","05:50",0.0,23.2,94.9,1004.8,320.9,1.1,1.6,330.1,0.00,22.4,25.2,"05:45:28",1
"17/07/09","06:00",0.0,23.1,94.8,1005.0,288.5,0.8,1.2,318.6,0.00,22.3,25.0,"05:50:48",1
"17/07/09","06:10",0.0,23.1,94.9,1004.8,292.3,0.8,1.2,334.3,0.00,22.3,25.0,"06:00:02",1
"17/07/09","06:20",0.0,23.3,94.9,1004.8,292.4,0.8,1.4,321.5,0.00,22.5,24.8,"06:10:24",1
"17/07/09","06:30",0.0,23.4,94.9,1005.0,308.1,1.0,1.3,315.0,0.00,22.6,25.0,"06:28:00",1
"17/07/09","06:40",0.0,23.6,94.8,1005.0,279.7,0.7,1.1,321.1,0.01,22.8,24.9,"06:30:16",1
"17/07/09","06:50",0.0,23.7,94.7,1005.0,291.5,0.7,1.3,317.6,0.01,22.8,25.0,"06:48:48",1
"17/07/09","07:00",0.0,23.8,94.6,1005.0,327.2,1.1,1.6,335.3,0.01,22.9,25.1,"06:57:52",1
"17/07/09","07:10",0.0,24.0,94.5,1005.0,325.1,0.8,1.3,343.6,0.02,23.1,25.0,"07:00:16",1
"17/07/09","07:20",0.0,24.2,94.2,1004.8,287.9,0.6,0.8,300.1,0.03,23.2,25.0,"07:14:32",1
"17/07/09","07:30",0.0,24.4,94.1,1005.0,282.7,0.5,1.0,318.4,0.03,23.4,25.0,"07:21:44",1
"17/07/09","07:40",0.0,24.6,93.8,1005.0,317.6,0.8,1.3,324.9,0.04,23.6,25.1,"07:34:32",1
"17/07/09","07:50",0.0,24.7,93.7,1005.0,271.2,0.5,0.9,263.9,0.04,23.7,25.0,"07:40:08",1
"17/07/09","08:00",0.0,24.8,93.0,1005.0,277.0,0.6,0.9,300.4,0.04,23.6,25.2,"07:54:48",1
"17/07/09","08:10",0.0,25.0,92.7,1005.0,298.3,0.5,1.0,334.1,0.04,23.8,25.2,"08:05:44",1
"17/07/09","08:20",0.0,25.2,92.1,1005.0,289.4,0.2,0.5,293.8,0.05,23.9,25.3,"08:17:52",1
"17/07/09","08:30",0.0,25.3,91.5,1004.8,320.9,0.7,1.1,341.8,0.04,23.9,25.2,"08:24:00",1
"17/07/09","08:40",0.0,25.4,91.6,1005.0,327.7,0.8,1.3,346.8,0.04,24.0,25.3,"08:31:12",1
"17/07/09","08:50",0.0,25.4,91.0,1005.2,341.4,0.5,0.9,341.5,0.03,23.9,25.2,"08:41:20",1
"17/07/09","09:00",0.0,25.6,91.2,1005.0,336.0,0.7,1.2,332.8,0.04,24.1,25.2,"08:50:40",1
"17/07/09","09:10",0.0,25.6,91.1,1005.5,332.5,0.7,1.4,336.8,0.04,24.1,25.2,"09:04:40",1
"17/07/09","09:20",0.0,25.8,91.1,1005.5,338.9,0.6,1.3,322.5,0.04,24.3,25.4,"09:14:40",1
"17/07/09","09:30",0.0,25.8,90.9,1005.5,339.4,0.6,1.3,335.3,0.05,24.2,25.2,"09:24:08",1
"17/07/09","09:40",0.0,26.0,90.7,1005.2,335.8,0.6,1.3,323.8,0.05,24.4,25.1,"09:35:28",1
"17/07/09","09:50",0.0,26.1,90.2,1005.5,339.7,0.6,1.3,330.7,0.07,24.4,25.2,"09:43:44",1
"17/07/09","10:00",0.0,26.3,89.7,1005.2,339.2,0.6,1.3,338.2,0.07,24.5,25.4,"09:53:28",1
"17/07/09","10:10",0.0,26.4,89.3,1005.0,302.6,0.7,1.2,341.2,0.07,24.5,25.6,"10:02:16",1
"17/07/09","10:20",0.0,26.5,89.1,1005.0,274.5,0.6,1.1,256.0,0.08,24.6,25.6,"10:14:56",1
"17/07/09","10:30",0.0,26.4,89.8,1004.8,265.5,0.5,1.0,258.5,0.09,24.6,25.6,"10:23:20",1
"17/07/09","10:40",0.0,26.5,89.1,1004.8,261.1,0.6,1.4,234.4,0.10,24.6,25.8,"10:34:56",1
"17/07/09","10:50",0.0,26.7,88.2,1004.5,273.6,0.3,0.9,252.3,0.12,24.6,25.8,"10:40:16",1
"17/07/09","11:00",0.0,27.4,88.2,1005.0,189.9,0.2,0.9,164.4,0.14,25.3,25.6,"10:57:52",1
"17/07/09","11:10",0.0,27.4,85.8,1004.8,346.1,0.2,1.0,95.6,0.16,24.8,25.7,"11:07:28",1
"17/07/09","11:20",0.0,27.6,82.8,1004.5,47.0,0.2,1.2,345.2,0.15,24.5,25.9,"11:19:28",1
"17/07/09","11:30",0.0,27.9,82.7,1004.5,79.8,0.2,0.8,340.7,0.14,24.7,25.8,"11:20:08",1
"17/07/09","11:40",0.0,27.8,83.4,1004.1,119.9,0.5,0.9,181.5,0.13,24.8,26.0,"11:32:08",1
"17/07/09","11:50",0.0,27.8,82.8,1003.6,19.2,0.3,1.1,5.0,0.14,24.6,26.0,"11:44:56",1
"17/07/09","12:00",0.0,27.8,84.0,1003.4,66.9,0.3,1.0,33.3,0.13,24.9,25.9,"11:55:52",1
"17/07/09","12:10",0.0,28.0,83.0,1003.4,338.1,0.2,0.8,357.1,0.14,24.9,26.1,"12:08:48",1
"17/07/09","12:20",0.0,28.1,83.5,1003.1,18.1,0.3,1.4,354.4,0.14,25.1,26.1,"12:12:24",1
"17/07/09","12:30",0.0,27.8,82.6,1003.1,341.8,0.3,1.3,340.5,0.12,24.6,26.3,"12:29:20",1
"17/07/09","12:40",0.0,27.8,82.9,1003.6,316.5,0.3,0.9,341.7,0.11,24.7,26.3,"12:38:56",1
"17/07/09","12:50",0.0,27.9,80.7,1002.9,350.8,0.6,1.3,29.4,0.10,24.3,26.3,"12:45:20",1
"17/07/09","13:00",0.0,27.9,80.6,1002.9,330.5,0.2,1.0,352.5,0.09,24.3,26.2,"12:58:32",1
"17/07/09","13:10",0.0,28.0,82.8,1002.6,344.0,0.6,1.2,347.7,0.10,24.8,26.3,"13:07:36",1
"17/07/09","13:20",0.0,28.2,81.8,1002.6,8.7,0.5,1.3,24.5,0.13,24.8,26.4,"13:14:32",1
"17/07/09","13:30",0.0,28.4,80.8,1002.6,328.4,0.5,1.3,336.3,0.15,24.8,26.4,"13:27:12",1
"17/07/09","13:40",0.0,28.6,79.7,1002.2,316.2,0.2,0.9,331.5,0.15,24.8,26.4,"13:31:12",1
"17/07/09","13:50",0.0,28.6,78.8,1002.6,24.1,0.3,1.4,347.2,0.14,24.6,26.5,"13:47:20",1
"17/07/09","14:00",0.0,28.6,80.0,1002.6,291.2,0.3,1.0,327.9,0.13,24.8,26.4,"13:57:12",1
"17/07/09","14:10",0.0,28.7,80.1,1002.6,339.4,0.5,1.6,341.1,0.13,25.0,26.6,"14:01:20",1
"17/07/09","14:20",0.0,28.6,80.0,1002.9,325.5,0.6,1.2,342.9,0.12,24.8,26.6,"14:14:24",1
"17/07/09","14:30",0.0,28.8,80.6,1002.6,325.9,0.2,0.9,351.4,0.11,25.2,26.6,"14:23:04",1
"17/07/09","14:40",0.0,28.9,81.1,1002.6,312.5,0.3,1.7,358.0,0.11,25.4,26.7,"14:38:08",1
"17/07/09","14:50",0.0,28.8,80.4,1002.6,314.6,0.7,1.7,329.9,0.13,25.1,26.8,"14:46:56",1
"17/07/09","15:00",0.0,29.2,78.3,1002.4,310.8,0.5,1.2,355.7,0.17,25.1,26.7,"14:57:20",1
"17/07/09","15:10",0.0,29.6,78.1,1002.6,291.8,0.3,1.3,253.6,0.18,25.4,26.8,"15:05:12",1
"17/07/09","15:20",0.0,29.6,76.5,1002.6,2.0,0.5,1.1,248.1,0.16,25.1,26.8,"15:16:32",1
"17/07/09","15:30",0.0,29.3,77.2,1002.6,350.0,0.7,1.6,349.5,0.13,24.9,26.7,"15:25:12",1
"17/07/09","15:40",0.0,29.5,77.3,1002.4,103.2,0.3,0.9,346.3,0.12,25.1,27.0,"15:30:02",1
"17/07/09","15:50",0.0,29.4,77.0,1001.9,356.1,0.7,1.3,347.1,0.09,25.0,26.9,"15:41:04",1
"17/07/09","16:00",0.0,29.5,77.6,1002.4,340.8,0.6,1.1,348.6,0.07,25.2,27.0,"15:50:08",1
"17/07/09","16:10",0.0,29.1,78.5,1001.9,254.4,0.2,0.9,252.5,0.03,25.0,27.1,"16:04:24",1
"17/07/09","16:20",0.0,28.9,81.1,1001.7,302.2,0.2,0.8,265.2,0.04,25.4,27.1,"16:13:52",1
"17/07/09","16:30",0.0,28.6,82.8,1001.0,320.7,0.7,1.8,341.3,0.04,25.4,27.0,"16:24:24",1
"17/07/09","16:40",0.0,28.2,85.1,1001.9,313.5,0.6,1.3,349.0,0.02,25.5,26.9,"16:31:28",1
"17/07/09","16:50",0.0,27.9,86.6,1001.7,329.5,0.8,1.3,337.4,0.00,25.5,27.1,"16:43:04",1
"17/07/09","17:00",0.0,27.5,87.5,1001.9,314.1,0.7,1.2,332.7,0.00,25.3,26.7,"16:56:16",1
"17/07/09","17:10",0.0,26.1,84.9,1002.4,194.0,2.3,8.1,206.6,0.00,23.4,26.8,"17:09:36",1
"17/07/09","17:20",0.0,24.9,86.6,1003.6,193.1,3.4,10.2,183.1,0.00,22.6,26.8,"17:10:56",1
"17/07/09","17:30",0.0,23.9,88.3,1003.8,166.7,1.7,5.8,177.3,0.00,21.9,26.1,"17:20:48",1
"17/07/09","17:40",0.0,23.1,89.2,1004.1,19.0,1.1,2.8,28.9,0.00,21.3,25.8,"17:35:46",1
"17/07/09","17:50",0.0,22.7,90.5,1003.8,342.6,1.6,3.7,328.1,0.00,21.1,25.8,"17:48:32",1
"17/07/09","18:00",0.0,22.6,91.2,1003.8,325.8,1.6,2.9,331.7,0.00,21.1,25.4,"17:53:44",1
"17/07/09","18:10",0.0,22.6,91.9,1003.8,230.8,0.7,1.8,242.6,0.00,21.3,25.4,"18:04:00",1
"17/07/09","18:20",0.0,22.6,91.9,1003.8,352.6,0.6,1.7,323.2,0.00,21.3,25.4,"18:19:52",1
"17/07/09","18:30",0.0,22.6,92.2,1004.3,320.4,1.2,1.8,333.9,0.00,21.3,25.4,"18:23:44",1
"17/07/09","18:40",0.0,22.6,92.5,1004.3,321.1,0.7,1.0,348.2,0.00,21.4,25.4,"18:32:16",1
"17/07/09","18:50",0.0,22.6,92.8,1003.8,311.9,1.3,2.1,326.6,0.00,21.4,25.5,"18:45:12",1
"17/07/09","19:00",0.0,22.6,93.0,1004.5,307.1,1.1,2.0,326.1,0.00,21.5,25.4,"18:54:40",1
"17/07/09","19:10",0.0,22.5,93.1,1004.5,279.8,0.8,1.7,241.5,0.00,21.4,25.3,"19:06:48",1
"17/07/09","19:20",0.0,22.4,93.2,1004.8,283.3,0.7,1.2,317.9,0.00,21.3,25.4,"19:10:24",1
"17/07/09","19:30",0.0,22.5,93.6,1004.5,312.6,0.5,1.0,285.3,0.00,21.5,25.2,"19:23:20",1
"17/07/09","19:40",0.0,22.4,93.7,1004.3,290.4,0.3,0.9,348.2,0.00,21.4,25.1,"19:30:08",1
"17/07/09","19:50",0.0,22.4,93.9,1004.1,297.4,0.6,1.4,342.5,0.00,21.4,25.1,"19:48:56",1
"17/07/09","20:00",0.0,22.4,93.9,1004.3,348.8,0.5,1.4,309.5,0.00,21.4,25.3,"19:50:08",1
"17/07/09","20:10",0.0,22.3,94.1,1004.3,318.3,0.3,0.9,14.2,0.00,21.3,25.1,"20:01:28",1
"17/07/09","20:20",0.0,22.3,94.2,1004.5,39.8,0.1,0.6,316.4,0.00,21.4,25.1,"20:11:20",1
"17/07/09","20:30",0.0,22.3,94.4,1004.3,144.5,0.1,0.4,154.9,0.00,21.4,25.0,"20:20:08",1
"17/07/09","20:40",0.0,22.5,94.5,1004.3,295.3,0.3,0.8,303.3,0.00,21.6,25.2,"20:35:36",1
"17/07/09","20:50",0.0,22.5,94.5,1004.3,296.7,0.6,1.4,345.5,0.00,21.6,25.0,"20:42:56",1
"17/07/09","21:00",0.0,22.4,94.4,1004.5,279.3,0.6,1.2,251.8,0.00,21.5,25.1,"20:59:36",1
"17/07/09","21:10",0.0,22.3,94.6,1004.5,260.1,0.3,0.8,244.4,0.00,21.4,25.0,"21:01:28",1
"17/07/09","21:20",0.0,22.4,94.8,1004.5,307.7,0.3,0.8,307.9,0.00,21.6,25.0,"21:12:00",1
"17/07/09","21:30",0.0,22.5,94.9,1004.8,341.1,0.5,1.2,356.5,0.00,21.7,24.8,"21:29:04",1
"17/07/09","21:40",0.0,22.5,94.9,1004.5,336.5,0.8,1.3,343.0,0.00,21.7,24.8,"21:32:56",1
"17/07/09","21:50",0.0,22.5,94.9,1004.8,340.0,0.5,0.9,335.1,0.00,21.7,24.7,"21:40:56",1
"17/07/09","22:00",0.0,22.4,95.0,1004.5,333.8,0.5,1.1,343.1,0.00,21.6,24.9,"21:50:02",1
"17/07/09","22:10",0.0,22.4,95.1,1004.8,314.6,0.6,1.1,335.6,0.00,21.6,24.8,"22:00:16",1
"17/07/09","22:20",0.0,22.4,95.1,1004.8,294.6,0.3,1.1,333.8,0.00,21.6,24.9,"22:19:12",1
"17/07/09","22:30",0.0,22.4,95.2,1004.8,337.0,0.7,1.2,340.6,0.00,21.6,24.8,"22:26:16",1
"17/07/09","22:40",0.0,22.3,95.2,1004.8,354.3,0.6,1.4,344.3,0.00,21.5,24.7,"22:32:00",1
"17/07/09","22:50",0.0,22.3,95.4,1005.2,285.0,0.5,0.8,321.7,0.00,21.6,25.0,"22:49:12",1
"17/07/09","23:00",0.0,22.4,95.4,1004.8,333.1,0.5,0.9,345.2,0.00,21.7,24.8,"22:57:12",1
"17/07/09","23:10",0.0,22.4,95.5,1005.0,315.2,0.5,1.0,334.1,0.00,21.7,24.7,"23:06:24",1
"17/07/09","23:20",0.0,22.4,95.4,1005.0,294.1,0.5,0.8,332.4,0.00,21.7,24.8,"23:14:56",1
"17/07/09","23:30",0.0,22.4,95.5,1004.8,312.9,0.6,1.2,333.9,0.00,21.7,24.6,"23:26:32",1
"17/07/09","23:40",0.0,22.4,95.6,1004.8,284.6,0.6,1.1,323.4,0.00,21.7,24.7,"23:31:20",1
"17/07/09","23:50",0.0,22.4,95.6,1004.3,273.1,0.3,0.9,232.9,0.00,21.7,24.6,"23:42:40",1
"17/07/09","24:00",0.0,22.4,95.7,1004.3,271.7,0.3,0.9,252.1,0.00,21.7,24.5,"23:50:02",1
